Location: Fluertsh�userhof
(48.7537°N, 10.3850°E)
Time: 06:21:48
(UTC+00:00)

Resurs 01 Rocket - Pass Details

Date: 18 September 2020
Orbit: 633 x 645 km, 98.0° (Epoch: 27 October)

Event Time Altitude Azimuth Distance (km) Brightness Sun altitude
Exits shadow 19:19:14 42° 104° (ESE) 923 1.9 -19.1°
Maximum altitude 19:20:05 48° 70° (ENE) 847 1.9 -19.2°
Drops below altitude 10° 19:24:23 10° 356° (N) 2,054 4.6 -19.9°
Sets 19:26:39 0° 351° (N) 2,967 5.6 -20.2°
